Flag for Canada Weather past 2 weeks in Yorkton, Saskatchewan, Canada

Now
34 °F

Clear.


Feels Like: 24 °F
Forecast: 32 / 48 °F
Wind: 14 mph from Northwest

Location: Yorkton

Current Time: Mar 29, 2015 at 3:49:29 AM

Latest Report: Mar 29, 2015 at 3:00 AM


Visibility: 9 mi

Pressure: 29.84 "Hg

Humidity: 93%

Dew point: 32 °F

Location of YorktonLocation

Historic Weather in Yorkton — Graph

°F

Yorkton temperature yesterday

Maximum temperature yesterday: 50 °F (at 4:00 PM)
Minimum temperature yesterday: 30 °F (at 12:00 AM)
Average temperature yesterday: 37 °F

Past Weeks' High & Low Weather Summary

 TemperatureHumidityPressure
High50 °F (Mar 28, 4:00 PM)100% (Mar 18, 7:00 AM)30.57 "Hg (Mar 18, 7:00 AM)
Low7 °F (Mar 26, 6:52 AM)35% (Mar 16, 2:00 PM)29.44 "Hg (Mar 15, 1:00 AM)
Average30 °F78%30.10 "Hg
* Reported Mar 14 2:00 AM — Mar 29 2:00 AM, Yorkton, Weather by CustomWeather, © 2015

Note: Actual official high and low records may vary slightly from our data, if they occured in-between our weather recording intervals... More about our weather records

Advertising

Yorkton weather history for previous 24 hours

 ConditionsComfort  
Time TempWeatherWind HumidityBarometerVisibility
2:00 AM
Sun, Mar 29
36 °FClear.18 mph87%29.81 "Hg9 mi
1:00 AM36 °FClear.13 mph87%29.78 "Hg9 mi
12:00 AM36 °FPassing clouds.13 mph93%29.74 "Hg9 mi
11:00 PM
Sat, Mar 28
37 °FMostly cloudy.22 mph93%29.71 "Hg9 mi
10:00 PM37 °FLight rain. Overcast.17 mph93%29.67 "Hg9 mi
9:00 PM37 °FFog.16 mph93%29.62 "Hg6 mi
8:00 PM39 °FLight rain. Fog.14 mph93%29.58 "Hg6 mi
7:00 PM39 °FLight rain. Fog.14 mph100%29.54 "Hg4 mi
6:00 PM45 °FLight rain. Mostly cloudy.13 mph81%29.52 "Hg9 mi
5:00 PM45 °FMostly cloudy.3 mph81%29.48 "Hg9 mi
4:00 PM50 °FSunny.7 mph71%29.48 "Hg9 mi
3:00 PM46 °FSunny.8 mph76%29.48 "Hg9 mi
2:00 PM43 °FSunny.14 mph76%29.49 "Hg9 mi
1:00 PM43 °FSunny.18 mph76%29.52 "Hg9 mi
12:00 PM39 °FSunny.18 mph81%29.56 "Hg9 mi
11:00 AM36 °FPassing clouds.21 mph87%29.61 "Hg9 mi
10:00 AM36 °FFog.18 mph87%29.67 "Hg5 mi
9:00 AM34 °FFog.17 mph93%29.72 "Hg5 mi
8:00 AM32 °FIce fog.14 mph100%29.78 "Hg3 mi
7:00 AM32 °FIce fog.14 mph100%29.82 "Hg5 mi
6:00 AM32 °FIce fog.13 mph100%29.85 "Hg5 mi
5:00 AM32 °FIce fog.13 mph93%29.88 "Hg5 mi
4:00 AM32 °FIce fog.13 mph93%29.91 "Hg6 mi
3:00 AM30 °FLow clouds.12 mph100%29.94 "Hg7 mi
Weather by CustomWeather, © 2015

See weather overviewHow to use our weather pages